Weather in Stepnoye

Russia / Jewish Autonomous Oblast     47°53′23″N   131°54′04″E
temp.,
°C
wind,
m/s
gust,
m/s
humid.,
%
clouds,
%
prec.,
mm/h
press.,
hPa
HPBL,
m
21 january, thu
thu2101:00−19ne2398100 1.3 1016138
04:00−20nw2297100 1.7 101633
07:00−22w339617 0.0 101954
10:00−21w35909 0.0 102177
13:00−17w46750 0.0 1023634
16:00−17wnw47730 0.0 1023320
19:00−21wnw45780 0.0 102486
22:00−23wnw33780 0.0 102545
22 january, fri
fri2201:00−25n22770 0.0 102521
04:00−25nw12770 0.0 102520
07:00−25wnw12790 0.0 102420
10:00−24wsw12820 0.0 102521
13:00−19wsw237725 0.0 1026155
16:00−18ssw018229 0.0 102529
19:00−21nw11790 0.0 102720
22:00−22nw22760 0.0 102820
23 january, sat
sat2301:00−22nw12740 0.0 102820
04:00−23wnw11770 0.0 102920
07:00−24w11820 0.0 102920
10:00−23sw12870 0.0 103020
13:00−18ssw23862 0.0 1029214
16:00−17sse22923 0.0 102774
19:00−20se229646 0.0 102720
22:00−20sse129561 0.0 102620
24 january, sun
sun2401:00−20sse119892 0.0 102620
04:00−21ssw1110069 0.0 102620
07:00−20wsw119899 0.0 102620
10:00−20w119362 0.0 102920
13:00−15w118227 0.0 1029105
16:00−14wsw118546 0.0 102932
19:00−16nne118469 0.0 103120
22:00−17nnw128580 0.0 103120
25 january, mon
mon2501:00−18n228547 0.0 103220
04:00−19n128563 0.0 103320
07:00−20n128567 0.0 103320
10:00−20nne128457 0.0 103522
13:00−16ene127485 0.0 1033233
16:00−15e018490 0.0 103260
19:00−18e1291100 0.0 103220
22:00−18e2394100 0.0 102964